Probability
9 10 10 8 7 6 5 5 4 3 2 1 0 0 0 0 0 0 0 0 0 0 0 0 0 0 0 0 0 0 0 0 0 0 0 0 0 0 0 0 0 0 0
14 13 11 10 8 7 6 5 4 3 2 1 0 0 0 0 0 0 0 0 0 0 0 0 0 0 0 0 0 0 0 0 0 0 0 0 0 0 0 0 0 0 0
19 18 16 14 12 10 7 4 3 2 1 0 0 0 0 0 0 0 0 0 0 0 0 0 0 0 0 0 0 0 0 0 0 0 0 0 0 0 0 0 0 0 0
22 23 23 19 16 13 9 5 2 1 1 0 0 0 0 0 0 0 0 0 0 0 0 0 0 0 0 0 0 0 0 0 0 0 0 0 0 0 0 0 0 0 0
22 25 26 22 18 16 12 7 3 1 0 0 0 0 0 0 0 0 0 0 0 0 0 0 0 0 0 0 0 0 0 0 0 0 0 0 0 0 0 0 0 0 0
22 23 26 24 19 15 12 8 4 2 1 0 0 0 0 0 0 0 0 0 0 0 0 0 0 0 0 0 0 0 0 0 0 0 1 1 0 0 0 0 0 0 0
19 21 23 24 21 16 12 9 6 3 1 0 0 0 0 0 0 0 0 0 0 0 0 0 0 0 0 0 0 0 0 1 1 1 1 1 0 0 0 0 0 0 0
17 18 21 24 22 18 13 10 7 4 1 0 0 0 0 0 0 0 0 0 0 0 0 0 0 0 0 0 0 0 0 1 2 1 1 1 0 0 0 0 0 0 0
15 16 20 23 22 19 14 10 7 5 2 0 0 0 0 0 0 0 0 0 0 0 0 0 0 0 0 0 0 0 0 1 2 2 1 1 0 0 0 0 0 0 0
12 14 17 19 18 17 13 9 7 6 4 1 0 0 0 0 0 0 0 0 0 0 0 0 0 0 0 0 0 0 0 0 1 2 2 2 1 1 0 0 1 1 1
9 10 13 15 14 14 12 7 5 6 5 3 1 0 0 0 0 0 0 0 0 0 0 0 0 0 0 0 0 0 0 0 0 1 3 3 3 2 1 1 2 3 3
7 8 10 12 13 14 12 7 4 5 6 4 2 0 0 0 0 0 0 0 0 0 0 0 0 0 0 0 0 0 0 0 0 1 2 3 3 2 1 1 3 5 5
6 7 8 10 11 12 12 9 4 4 4 3 1 1 0 0 0 0 0 0 0 0 0 0 0 0 0 0 0 0 0 0 0 1 2 3 3 2 1 1 3 5 5
4 5 7 8 8 9 9 8 6 3 2 1 1 2 1 0 0 0 0 0 0 0 0 0 0 0 0 0 0 0 0 0 0 0 1 2 2 2 1 0 2 3 3
2 3 6 7 6 6 6 6 6 4 2 1 2 3 2 1 1 0 0 0 0 0 0 0 0 0 0 0 0 0 0 0 0 0 0 1 1 1 0 0 0 1 1
1 2 4 6 6 5 5 5 5 4 2 1 2 3 3 2 2 1 0 0 0 0 0 0 0 0 0 0 0 0 0 0 0 0 0 0 0 0 0 0 0 0 0
0 0 2 3 5 5 4 4 3 2 1 0 1 1 2 2 2 2 1 0 0 0 0 0 0 0 0 0 0 0 0 0 0 0 0 0 0 0 0 0 0 0 0
0 0 0 1 3 3 4 3 2 1 0 0 0 0 0 0 1 2 1 1 0 0 0 0 0 0 0 0 0 0 0 0 0 0 0 0 0 0 0 0 0 0 0
0 0 0 0 1 1 2 2 1 0 0 0 0 0 0 0 0 1 1 1 0 0 0 0 0 0 0 0 0 0 0 0 0 0 0 0 0 0 0 0 0 0 0
0 0 0 0 0 0 1 1 0 0 0 0 0 0 0 0 0 0 1 1 0 0 0 0 0 0 0 0 0 0 0 0 0 0 0 0 0 0 0 0 0 0 0
0 0 0 0 0 0 0 0 0 0 0 0 0 0 0 0 0 0 0 0 0 0 0 0 0 0 0 0 0 0 0 0 0 0 0 0 0 0 0 0 0 0 0
0 0 0 0 0 0 0 0 0 0 0 0 0 0 0 0 0 0 0 0 0 0 0 0 0 0 0 0 0 0 0 0 0 0 0 0 0 0 0 0 0 0 0
0 0 0 0 0 0 0 0 0 0 0 0 0 0 0 0 0 0 0 0 0 0 0 0 0 0 0 0 0 0 0 0 0 0 0 0 0 0 0 0 0 0 0
0 0 0 0 0 0 0 0 0 0 0 0 0 0 0 0 0 0 0 0 0 0 0 0 0 0 0 0 0 0 0 0 0 0 0 0 0 0 0 0 0 0 0
0 0 0 0 0 0 0 0 0 0 0 0 0 0 0 0 0 0 0 0 0 0 0 0 0 0 0 0 0 0 0 0 0 0 0 0 0 0 0 0 0 0 0
0 0 0 0 0 0 0 0 0 0 0 0 0 0 0 0 0 0 0 0 0 0 0 0 0 0 0 0 0 0 0 0 0 0 0 0 0 0 0 0 0 0 0
Wind_Speed
5 5 5 6 6 6 6 7 7 8 8 7 7 8 7 7 5 4 5 11 10 9 9 9 9 8 8 7 7 6 5 4 3 3 3 2 2 2 2 3 3 2 3
5 5 5 6 7 6 6 7 8 7 6 6 6 7 6 6 6 5 6 8 11 10 10 11 10 10 10 9 8 7 6 5 5 4 4 3 3 3 3 3 2 2 2
6 5 5 6 6 7 7 6 7 6 5 5 6 6 5 5 5 5 6 6 7 10 11 12 12 11 11 10 9 9 8 7 6 6 5 5 5 5 5 4 3 2 3
6 6 5 5 6 6 6 6 5 5 5 5 4 4 4 4 5 5 5 6 6 6 9 12 12 12 12 12 11 11 10 9 8 7 7 6 6 5 5 4 4 4 4
6 5 5 5 5 5 5 6 5 5 5 5 5 4 4 4 5 5 5 6 7 7 6 10 13 12 11 12 13 12 12 10 9 9 8 7 7 6 6 5 5 5 4
6 5 4 5 5 5 5 5 6 5 4 5 5 4 4 4 4 5 6 5 6 7 7 7 7 9 13 13 13 14 13 12 11 10 10 9 8 8 7 7 7 6 6
5 5 4 5 5 6 6 6 5 6 5 3 2 2 3 5 5 5 5 5 6 7 7 7 6 6 6 13 14 14 14 14 13 12 11 10 10 9 9 8 8 8 7
5 5 5 5 5 5 6 7 5 4 4 5 4 2 2 4 6 7 5 6 6 5 7 8 7 7 6 5 8 14 15 15 15 14 12 12 11 11 11 10 10 10 9
5 5 5 5 5 6 6 7 7 7 5 5 5 5 4 5 3 4 7 7 7 6 6 6 8 8 8 6 6 11 14 14 15 15 14 13 12 12 11 11 11 11 10
5 5 6 6 6 5 6 6 7 6 6 5 5 5 4 3 3 2 4 6 7 7 7 6 7 8 8 6 7 11 13 14 16 16 15 14 14 13 13 12 12 12 11
4 5 5 5 5 5 6 6 6 7 7 7 5 4 5 4 4 3 3 4 4 5 6 7 6 6 7 7 6 9 13 15 16 17 16 16 15 15 14 14 13 12 11
2 3 4 3 4 4 5 6 6 7 7 8 7 6 5 5 6 5 5 5 5 5 6 6 6 6 7 7 9 12 13 14 16 16 17 16 16 15 15 14 13 12 11
2 3 3 3 3 3 4 5 6 6 7 8 9 8 7 7 5 5 5 4 5 4 4 5 6 6 6 6 7 12 12 14 14 16 17 17 15 13 13 14 13 12 12
2 2 2 2 2 3 3 3 4 4 5 6 8 8 6 6 6 6 5 4 4 4 5 6 4 5 5 5 6 10 8 13 14 15 16 16 13 11 12 12 13 12 12
3 3 2 2 2 2 2 2 2 3 3 4 5 6 6 5 5 5 5 5 6 7 8 6 5 5 4 4 6 6 6 11 14 14 14 13 12 11 12 12 12 12 11
4 4 3 2 3 3 3 2 1 2 2 3 3 4 5 4 4 4 4 5 6 7 7 4 5 3 4 4 6 6 7 11 13 14 14 13 12 12 12 13 12 12 12
5 4 3 3 3 3 3 2 2 2 2 2 2 3 4 4 3 4 4 4 5 5 8 5 3 3 4 5 4 5 5 6 7 13 14 14 13 13 13 13 13 13 13
5 5 5 4 4 4 4 3 3 2 2 3 3 3 3 3 4 3 4 5 5 6 7 7 3 3 4 6 5 5 5 5 5 10 13 13 13 14 14 14 14 14 14
6 7 6 6 6 6 6 5 5 4 3 3 3 3 3 3 4 3 3 4 4 5 5 5 4 3 3 3 4 4 4 4 5 7 10 12 14 14 14 15 15 15 14
6 7 7 6 6 6 6 6 5 5 4 4 3 3 3 3 4 4 3 4 4 5 5 4 3 2 3 2 3 3 4 4 5 4 8 9 11 14 15 15 15 14 14
7 7 6 6 6 5 6 6 5 5 4 4 4 4 4 4 5 5 4 4 4 4 4 4 4 3 3 2 3 3 4 3 4 4 4 5 6 6 8 12 14 14 15
7 7 7 7 7 6 10 11 8 5 5 5 5 5 5 5 6 8 8 7 6 5 5 4 5 5 5 4 3 3 4 4 5 3 4 5 5 6 6 6 12 15 16
7 7 7 7 7 8 12 12 11 6 5 5 5 5 5 5 7 5 7 8 8 9 8 6 5 5 5 4 5 5 6 6 6 4 4 6 4 6 5 7 14 15 15
6 6 7 7 7 9 14 13 13 7 5 5 5 5 5 5 6 7 5 5 6 6 7 5 5 6 5 5 6 7 8 7 4 4 4 6 4 5 5 5 12 15 15
5 5 5 6 6 8 13 14 12 5 5 5 6 6 6 5 10 12 7 6 7 6 8 10 11 10 11 10 7 4 4 4 5 4 4 4 3 3 3 5 8 14 14
4 5 5 5 5 6 11 13 13 5 5 5 5 5 9 9 12 13 7 6 7 7 7 8 8 8 7 7 8 5 4 5 4 4 4 3 3 2 3 3 3 5 7
Wind_Direction
194 186 182 181 184 184 186 185 191 200 202 207 200 198 205 205 208 187 162 179 181 195 207 209 214 217 220 221 224 222 222 222 231 235 230 241 256 272 282 295 308 321 334
194 191 190 186 189 188 188 189 193 199 201 204 207 204 206 202 206 189 165 184 190 196 208 214 218 222 224 224 224 224 222 225 230 235 232 240 250 257 270 282 290 309 329
199 192 195 193 193 190 189 192 195 196 196 200 206 209 211 211 208 196 175 175 188 202 209 216 219 223 224 225 226 225 223 225 227 233 237 243 249 251 259 264 270 276 294
207 196 195 198 196 190 189 192 194 191 192 194 204 213 211 212 217 209 189 180 182 192 207 216 220 222 224 226 228 227 225 223 225 230 237 242 246 243 246 256 261 262 273
215 203 197 198 195 192 193 195 197 190 190 194 203 212 215 211 213 215 206 194 190 188 188 207 215 219 221 225 230 232 231 226 225 227 234 239 240 238 241 250 257 258 262
218 209 201 199 196 193 196 196 194 192 191 191 204 214 219 221 212 211 212 205 197 193 191 194 203 218 220 222 228 233 234 233 230 229 230 233 235 237 238 243 251 256 260
222 216 210 202 200 200 199 196 192 193 196 177 172 222 247 239 232 219 211 206 204 199 195 196 195 199 210 220 224 229 231 234 233 232 231 230 234 239 242 245 249 252 254
220 220 213 207 204 201 202 199 194 191 194 180 164 167 228 245 243 229 216 210 209 200 201 201 199 201 199 198 215 221 227 232 234 234 231 232 234 239 244 248 252 251 251
226 217 215 212 209 205 206 205 200 194 198 196 182 175 186 215 225 226 219 213 207 204 206 202 205 205 202 199 200 214 219 225 232 235 234 234 234 237 243 249 252 252 252
237 221 216 213 212 212 212 210 207 203 197 199 202 209 208 190 192 232 235 220 211 210 208 207 208 209 204 201 203 205 210 217 227 232 235 236 237 237 242 247 250 251 251
241 237 226 213 210 211 214 214 210 207 206 203 198 198 217 234 224 211 236 230 224 221 213 210 206 207 207 204 204 208 207 213 224 231 235 237 238 238 241 246 250 252 249
248 248 242 226 217 210 210 214 214 215 216 214 209 204 196 198 206 210 223 222 225 225 220 216 212 211 208 205 207 206 206 212 222 230 236 238 239 240 243 246 248 247 246
271 265 254 240 232 224 219 218 217 221 220 222 220 217 214 216 203 203 216 224 231 236 228 227 217 213 209 202 205 206 210 213 220 228 235 238 238 240 242 244 244 244 246
304 305 286 275 263 244 232 227 225 228 227 229 232 228 225 223 216 211 209 213 236 239 231 232 225 214 209 205 209 203 213 214 219 227 234 239 239 238 237 240 241 243 246
338 339 338 328 318 306 277 247 241 246 242 237 238 237 236 230 225 221 217 213 223 238 238 226 221 214 210 206 205 205 211 217 219 224 231 235 232 233 231 232 234 238 241
354 351 353 359 354 348 341 325 305 296 273 261 250 244 245 243 235 227 225 223 225 235 246 226 221 216 209 216 214 211 218 220 223 225 228 230 227 228 228 229 229 233 235
3 6 4 15 12 359 348 349 342 333 295 291 293 267 260 255 248 240 230 229 231 232 247 246 226 221 210 219 222 221 223 219 225 226 227 227 227 228 230 229 229 232 233
12 15 17 25 21 11 10 9 1 348 325 312 307 299 294 288 265 260 247 240 237 235 241 250 242 232 229 219 215 223 230 229 229 231 228 229 229 230 232 232 231 232 230
21 22 26 29 26 22 19 11 3 356 346 335 325 308 305 304 282 268 263 259 251 248 243 249 248 239 241 225 220 230 231 235 239 235 233 235 235 235 236 237 235 230 227
24 23 25 26 26 23 21 10 2 359 355 350 344 338 334 319 304 291 272 269 267 255 249 252 253 250 248 235 220 229 246 234 237 232 236 239 240 239 238 240 235 228 224
26 23 22 20 17 19 17 6 356 354 351 348 346 344 345 340 323 319 311 293 282 267 258 251 253 255 244 229 230 227 249 260 254 231 233 232 232 233 230 235 233 227 225
21 23 23 21 21 17 8 7 4 1 358 357 352 348 345 345 347 342 335 323 306 284 269 253 247 252 247 244 237 242 245 255 257 222 226 244 226 235 234 232 234 230 226
16 17 18 20 20 14 10 8 8 5 359 355 350 344 344 349 352 344 337 335 325 312 298 279 262 256 252 244 238 238 237 243 253 231 233 255 232 241 237 239 237 232 230
15 15 15 15 15 12 12 10 6 8 0 358 354 349 347 346 345 341 334 327 315 312 306 293 270 261 258 249 238 240 241 247 261 240 218 251 242 245 245 236 236 232 232
14 10 8 9 12 8 11 11 9 359 1 357 353 350 344 341 340 341 335 319 312 309 313 305 297 290 287 283 275 265 250 247 264 252 220 231 244 260 256 242 235 233 234
3 357 359 2 7 7 9 11 7 359 356 348 341 341 346 342 339 338 331 318 311 307 308 307 298 293 283 272 270 247 234 242 259 260 222 213 240 241 265 251 235 227 230